Regional Weather Roundup
Issued by NWS

Home | Current Version | Previous Version | Text Only | Print | Product List | Glossary Off
Versions: 1 2 3 4 5 6 7 8 9 10 11 12 13 14 15 16 17 18 19 20 21 22 23 24 25 26 27 28 29 30 31 32 33 34 35 36 37 38 39 40 41 42 43 44 45 46 47 48 49 50

936
ASUS43 KIND 272059
RWRIN

WEATHER ROUNDUP FOR INDIANA
NATIONAL WEATHER SERVICE INDIANAPOLIS IN
500 PM EDT SAT AUG 27 2016

NOTE: "FAIR" INDICATES FEW OR NO CLOUDS BELOW 12,000 FEET WITH NO
SIGNIFICANT WEATHER AND/OR OBSTRUCTIONS TO VISIBILITY.

* - STATION DOES NOT REPORT WEATHER SUCH AS PRECIPITATION OR FOG.

+ - STATION NOT QUALITY CONTROLLED BY THE NATIONAL WEATHER SERVICE.
    USE DATA WITH CAUTION...ESPECIALLY DEWPOINT AND RELATIVE
    HUMIDITY OBSERVATIONS.

INZ001>003-010>013-019-020-272200-
NORTHWEST INDIANA

CITY           SKY/WX    TMP DP  RH WIND       PRES   REMARKS
GARY /AIRPORT/ PTSUNNY   86  72  62 SW9       30.02F
KNOX *+        PTSUNNY   82  50  32 S10       30.04S
MONTICELLO +   MOSUNNY   84  68  58 S8        30.05S

$$

LMZ046-743>745-272200-
SOUTHERN LAKE MICHIGAN

STATION/POSITION TIME  TEMP    WIND        PRES    WAVE
                       AIR SEA DIR/SP/G            HT
                 (UTC) (F)     (DEG/KT/KT) (MB)    (FT)
BURNS HARBOR     2010   83     190/ 10/ 15 1017.3F
MICHIGAN CITY    2000   81     160/ 13/ 14   N/A
5NW MICH CITY    2000   78 76  190/  6/  8   N/A     1

$$

INZ004-005-014>016-021>024-272200-
NORTH CENTRAL INDIANA

CITY           SKY/WX    TMP DP  RH WIND       PRES   REMARKS
GOSHEN         CLOUDY    82  70  66 S9        30.05F
SOUTH BEND     MOSUNNY   82  72  71 S10       30.05F

$$

INZ006>009-017-018-025>027-272200-
NORTHEAST INDIANA

CITY           SKY/WX    TMP DP  RH WIND       PRES   REMARKS
ANGOLA *+      SUNNY     79  73  83 S6        30.07S
FORT WAYNE     CLOUDY    79  71  76 S9        30.07F

$$

INZ028-029-035-036-043>045-051>053-272200-
WEST CENTRAL INDIANA

CITY           SKY/WX    TMP DP  RH WIND       PRES   REMARKS
CRAWFORDSVL +  SUNNY     83  73  70 SW5       30.06F
LAFAYETTE      PTSUNNY   85  73  67 S7        30.04F
TERRE HAUTE    SUNNY     87  71  58 S9        30.06F

$$

INZ030>032-037>040-046>048-054>057-064-065-272200-
CENTRAL INDIANA

CITY           SKY/WX    TMP DP  RH WIND       PRES   REMARKS
COLUMBUS       SUNNY     82  75  78 CALM      30.08F
INDIANAPOLIS   MOSUNNY   82  72  71 VRB5      30.07F
-EAGLE CREEK   SUNNY     83  71  67 S6        30.06F
KOKOMO *+      MOSUNNY   84  73  70 SW7       30.06F
MT COMFORT *+  SUNNY     81  72  74 SW6       30.09F
SHELBYVILLE    SUNNY     84  71  65 S6        30.07F

$$

INZ033-034-041-042-049-050-058-059-272200-
EAST CENTRAL INDIANA

CITY           SKY/WX    TMP DP  RH WIND       PRES   REMARKS
MUNCIE         CLOUDY    81  72  74 VRB5      30.08F

$$

INZ060-061-067>069-081>083-085>088-272200-
SOUTHWEST INDIANA

CITY           SKY/WX    TMP DP  RH WIND       PRES   REMARKS
EVANSVILLE     SUNNY     88  72  58 SE5       30.05F
HUNTINGBURG *+ SUNNY     88  72  58 SE3       30.06

$$

INZ062-063-066-070>080-084-089>092-272200-
SOUTH CENTRAL AND SOUTHEAST INDIANA

CITY           SKY/WX    TMP DP  RH WIND       PRES   REMARKS
BLOOMINGTON    MOSUNNY   86  72  62 VRB3      30.08F
MADISON *+     MOSUNNY   84  70  61 N5        30.10F

$$





USA.gov is the U.S. government's official web portal to all federal, state and local government web resources and services.